This is the latest recevied weather packets stored in our database for station/object W4DHW-4. If no packets are shown the sender has not sent any weather packets the latest 10 day(s).
| Time | Temp. | Humidity | Pressure | Rain* | Wind** | Luminosity | Snow |
|---|---|---|---|---|---|---|---|
| 1777417271 | 17.78° C | 80% | 1016 hPa | 0 mm | - | 52 W/m² | - |
| 1777416967 | 17.78° C | 79% | 1016.4 hPa | 0 mm | - | 83 W/m² | - |
| 1777416667 | 18.33° C | 79% | 1016.2 hPa | 0 mm | - | 98 W/m² | - |
| 1777416363 | 18.33° C | 79% | 1016.4 hPa | 0 mm | - | 110 W/m² | - |
| 1777416062 | 17.78° C | 79% | 1016.3 hPa | 0 mm | - | 122 W/m² | - |
| 1777415758 | 17.78° C | 79% | 1016.3 hPa | 0 mm | - | 140 W/m² | - |
| 1777415454 | 17.78° C | 79% | 1016.4 hPa | 0 mm | - | 74 W/m² | - |
| 1777415150 | 17.78° C | 80% | 1016.5 hPa | 0 mm | - | 59 W/m² | - |
| 1777414844 | 17.78° C | 79% | 1016.6 hPa | 0 mm | - | 196 W/m² | - |
| 1777414539 | 17.78° C | 80% | 1016.5 hPa | 0 mm | - | 210 W/m² | - |
| 1777414239 | 17.78° C | 79% | 1016.7 hPa | 0 mm | - | 217 W/m² | - |
| 1777413934 | 18.33° C | 79% | 1016.7 hPa | 0 mm | - | 236 W/m² | - |
| 1777413630 | 17.78° C | 79% | 1016.6 hPa | 0 mm | - | 264 W/m² | - |
| 1777413326 | 17.78° C | 79% | 1016.8 hPa | 0 mm | - | 257 W/m² | - |
| 1777413022 | 17.78° C | 79% | 1016.4 hPa | 0 mm | - | 85 W/m² | - |
| 1777412722 | 18.33° C | 78% | 1016.5 hPa | 0 mm | - | 311 W/m² | - |
| 1777412420 | 18.33° C | 78% | 1016.4 hPa | 0 mm | - | 95 W/m² | - |
| 1777412119 | 17.78° C | 78% | 1016.5 hPa | 0 mm | - | 157 W/m² | - |
| 1777411815 | 17.78° C | 79% | 1016 hPa | 0 mm | - | 79 W/m² | - |
| 1777411513 | 17.78° C | 78% | 1016 hPa | 0 mm | - | 78 W/m² | - |
| 1777411208 | 17.78° C | 79% | 1016 hPa | 0 mm | - | 81 W/m² | - |
| 1777410903 | 16.67° C | 81% | 1016.2 hPa | 0 mm | - | 87 W/m² | - |
| 1777410603 | 17.22° C | 81% | 1016.2 hPa | 0 mm | - | 122 W/m² | - |
| 1777410303 | 17.22° C | 81% | 1016.5 hPa | 0 mm | - | 164 W/m² | - |
| 1777409997 | 17.22° C | 80% | 1016.3 hPa | 0 mm | - | 414 W/m² | - |
* Rain latest hour (hover to see other rain measurements)
** Current wind speed in m/s (hover to see current wind gust speed)